Find Starlink 11327

NORAD ID: 61695 Int'l Des: 2024-195 Owner: SPXS Country: US Constellation: starlink operational
LEOCIRCULAR

Live-Position

3D-Globus wird geladen...

Über Starlink 11327

Beschreibung wird geladen...

Nächste Überflüge

Passes for default location (London). Set your location on the main map for personalized predictions.

Höhenverlauf

Loading altitude history...

Zweizeiliger Elementsatz

1 61695U 24195J 26120.18954419 -.00001758 00000-0 -96700-5 0 9990
2 61695 53.1588 132.2776 0000529 78.2947 281.8130 15.69698922 87128
Epoch: 30. Apr. 2026 • Age: 4 hours

Aktueller Status

Höhe 362.2 km
Geschwindigkeit 7.69 km/s
Subsatellitenpunkt -8.08°S, 26.91°W
Startdatum 30. Okt. 2024
Alter 1.4 years
Typ internet

Technische Details

Klassifizierung Payload
Masse 960.00 kg
Trockenmasse 910.00 kg
Gesamtmasse 960.00 kg
Länge 0.30 m
Durchmesser 4.10 m
Spannweite 29.00 m
Form Box + pan
Hersteller SPXS
Bus-Typ Starlink V2MD
Phasenstatus In Orbit
Besitzer/Staat SPXS/US

Most Searched